Location: Muenchen
(48.1800°N, 11.5800°E)
Time: 21:23:43
(UTC+02:00)

Cosmos 1455 - Visible Passes

Search period start: 27 August 2015 00:00
Search period end: 06 September 2015 00:00
Orbit: 508 x 535 km, 82.5° (Epoch: 27 August)

Date Brightness Start Highest point End Pass type
(mag) Time Alt. Az. Time Alt. Az. Time Alt. Az.
27 Aug 4.4 03:44:20 15° SE 03:46:13 22° E 03:49:13 10° NE visible
27 Aug 3.1 05:19:30 16° SW 05:21:57 30° WNW 05:25:20 10° N visible
28 Aug 4.5 03:31:36 16° ESE 03:32:58 19° E 03:35:47 10° NE visible
28 Aug 3.0 05:06:45 21° SW 05:08:38 34° WNW 05:12:08 10° N visible
29 Aug 4.6 03:18:50 16° ESE 03:19:44 17° E 03:22:18 10° NE visible
29 Aug 2.8 04:53:59 28° WSW 04:55:19 39° WNW 04:58:55 10° N visible
30 Aug 4.7 03:06:01 15° E 03:06:29 15° E 03:08:46 10° NE visible
30 Aug 2.6 04:41:10 38° WSW 04:42:00 45° WNW 04:45:41 10° N visible
31 Aug 4.9 02:53:11 13° E 02:53:16 13° E 02:55:10 10° NE visible
31 Aug 2.3 04:28:20 49° W 04:28:42 52° WNW 04:32:25 10° N visible
01 Sep 5.1 02:40:19 11° E 02:40:19 11° E 02:41:24 10° ENE visible
01 Sep 2.2 04:15:28 60° WNW 04:15:28 60° WNW 04:19:10 10° N visible
02 Sep 2.4 04:02:34 61° NNW 04:02:34 61° NNW 04:05:53 10° N visible
03 Sep 2.8 03:49:39 51° N 03:49:39 51° N 03:52:36 10° N visible
04 Sep 3.3 03:36:43 41° NNE 03:36:43 41° NNE 03:39:18 10° N visible
05 Sep 3.8 03:23:45 33° NNE 03:23:45 33° NNE 03:25:58 10° NNE visible
05 Sep 4.6 04:58:53 10° WNW 04:58:53 10° WNW 04:59:22 10° NW visible
